FW3192 Weather Reports


Display with metric or nautical units.
time (UTC)temp
F
wind
direction
speed
MPH
gust
MPH
rain 1hr
in
rain 24hr
in
rain mn
in
humidity
%
barometer
mb
20260902124557 56 223 9.0 15.0 0.00 0.00 0.00 77 1015.8
20260902123103 56 257 9.0 13.0 0.00 0.00 0.00 76 1015.9
20260902121538 56 232 6.0 12.0 0.00 0.00 0.00 79 1015.8
20260902120033 56 242 7.0 14.0 0.00 0.00 0.00 78 1016.0
20260902114524 56 203 7.0 11.0 0.00 0.00 0.00 79 1015.8
20260902113011 56 258 8.0 12.0 0.00 0.00 0.00 78 1015.6
20260902111558 56 237 5.0 10.0 0.00 0.00 0.00 77 1015.3
20260902110051 56 233 4.0 9.0 0.00 0.00 0.00 77 1015.2
20260902104535 56 259 5.0 11.0 0.00 0.00 0.00 77 1015.3
20260902103034 56 294 3.0 16.0 0.00 0.00 0.00 76 1015.3
20260902101534 56 218 9.0 13.0 0.00 0.00 0.00 74 1015.1
20260902100039 56 222 7.0 14.0 0.00 0.00 0.00 72 1015.0
20260902094533 56 287 4.0 8.0 0.00 0.00 0.00 71 1014.9
20260902093035 56 299 4.0 9.0 0.00 0.00 0.00 71 1014.7
20260902091531 57 272 3.0 14.0 0.00 0.00 0.00 69 1014.7
20260902090030 57 248 6.0 16.0 0.00 0.01 0.00 70 1014.5
20260902084520 55 269 3.0 7.0 0.00 0.01 0.00 73 1014.5
20260902083020 55 282 5.0 8.0 0.00 0.01 0.00 71 1014.2
20260902081518 56 240 4.0 8.0 0.00 0.01 0.00 70 1014.1
20260902080018 57 265 3.0 9.0 0.00 0.02 0.00 69 1014.0
20260902074524 58 247 5.0 10.0 0.00 0.02 0.00 70 1014.0
20260902073013 58 205 6.0 15.0 0.00 0.02 0.00 70 1013.9
20260902071514 58 306 4.0 8.0 0.00 0.02 0.00 71 1014.0
20260902070010 57 266 2.0 8.0 0.00 0.12 0.00 73 1014.1
20260902064511 58 258 2.0 8.0 0.00 0.12 0.00 72 1014.1
20260902063053 58 229 2.0 6.0 0.00 0.12 0.00 70 1014.0
20260902061605 58 249 1.0 6.0 0.00 0.12 0.00 71 1014.0
20260902060031 58 246 2.0 6.0 0.00 0.12 0.00 70 1014.1
20260902054538 58 242 1.0 6.0 0.00 0.12 0.00 71 1014.1
20260902053028 58 248 3.0 7.0 0.00 0.12 0.00 68 1014.2
20260902051528 59 273 1.0 5.0 0.00 0.12 0.00 67 1014.2
20260902050037 58 247 3.0 6.0 0.00 0.12 0.00 67 1014.3
20260902044526 59 262 3.0 5.0 0.00 0.12 0.00 66 1014.4
20260902043024 59 244 3.0 7.0 0.00 0.12 0.00 65 1014.3
20260902041525 59 231 3.0 6.0 0.00 0.12 0.00 66 1014.5
20260902040008 59 267 4.0 9.0 0.00 0.12 0.00 67 1014.6
20260902034508 59 242 3.0 7.0 0.00 0.12 0.00 66 1014.8
20260902033006 59 314 1.0 8.0 0.00 0.12 0.00 67 1014.9
20260902031504 60 247 3.0 6.0 0.00 0.12 0.00 67 1015.1
20260902030002 60 228 3.0 14.0 0.00 0.12 0.00 69 1015.3
20260902024621 59 239 8.0 13.0 0.00 0.12 0.00 69 1015.4
20260902023104 59 253 6.0 11.0 0.00 0.12 0.00 70 1015.6
20260902021604 59 241 6.0 12.0 0.00 0.12 0.00 67 1015.7
20260902020040 59 263 7.0 13.0 0.00 0.12 0.00 66 1015.8
20260902014541 58 255 8.0 11.0 0.00 0.12 0.00 69 1015.9
20260902013035 59 266 8.0 13.0 0.00 0.12 0.00 69 1016.1
20260902011532 59 249 5.0 13.0 0.00 0.12 0.00 70 1016.3
20260902010028 58 245 4.0 14.0 0.00 0.12 0.00 69 1016.5
20260902004527 58 277 4.0 12.0 0.00 0.12 0.00 70 1016.7
20260902003027 58 294 7.0 11.0 0.00 0.12 0.00 70 1016.8
20260902001525 57 230 6.0 13.0 0.00 0.12 0.00 73 1016.9
20260902000011 57 281 7.0 12.0 0.00 0.12 0.00 75 1016.9
20260901234508 57 259 3.0 13.0 0.00 0.12 0.00 75 1016.9
20260901233011 56 225 7.0 11.0 0.00 0.12 0.00 73 1016.9
20260901231511 56 232 7.0 12.0 0.00 0.12 0.00 75 1017.0
20260901230006 56 259 7.0 12.0 0.00 0.12 0.00 78 1017.0
20260901224505 56 249 7.0 11.0 0.00 0.12 0.00 81 1017.1
20260901223004 56 247 7.0 11.0 0.00 0.12 0.00 78 1017.1
20260901221501 56 247 8.0 12.0 0.00 0.12 0.00 79 1016.9
20260901220046 56 289 5.0 10.0 0.00 0.12 0.00 81 1016.8
20260901214557 56 257 7.0 10.0 0.00 0.12 0.00 82 1016.7
20260901213108 56 281 6.0 10.0 0.00 0.12 0.00 81 1016.5
20260901211542 56 232 6.0 10.0 0.00 0.12 0.00 83 1016.5
20260901210042 56 229 6.0 9.0 0.00 0.12 0.00 83 1016.2
20260901204538 55 259 6.0 9.0 0.00 0.12 0.00 83 1016.1
20260901203101 55 232 5.0 8.0 0.00 0.12 0.00 82 1015.9
20260901201535 55 260 4.0 11.0 0.00 0.12 0.00 88 1015.8
20260901200043 54 248 7.0 10.0 0.00 0.12 0.00 93 1015.7
20260901194541 54 234 7.0 12.0 0.00 0.12 0.00 94 1015.7
20260901193040 55 237 6.0 11.0 0.00 0.12 0.00 95 1015.7
20260901191534 55 235 6.0 9.0 0.00 0.12 0.00 95 1015.7
20260901190052 55 247 3.0 7.0 0.00 0.12 0.00 94 1015.8
20260901184551 55 244 6.0 8.0 0.00 0.12 0.00 94 1015.6
20260901183058 55 228 6.0 10.0 0.00 0.12 0.00 93 1015.7
20260901181550 54 216 0.0 1.0 0.00 0.12 0.00 93 1015.6
20260901180026 54 216 0.0 1.0 0.00 0.12 0.00 94 1015.6
20260901174524 54 216 0.0 0.0 0.00 0.12 0.00 93 1015.5
20260901173022 55 216 0.0 1.0 0.00 0.12 0.00 93 1015.5
20260901171521 55 216 0.0 1.0 0.00 0.12 0.00 93 1015.7
20260901170003 55 216 3.0 4.0 0.00 0.12 0.00 92 1015.8
20260901164502 56 216 3.0 6.0 0.00 0.12 0.00 92 1015.9
20260901163045 55 218 3.0 6.0 0.00 0.12 0.00 92 1015.9
20260901161549 55 219 3.0 4.0 0.00 0.12 0.00 92 1015.9
20260901160042 55 183 1.0 3.0 0.00 0.12 0.00 91 1016.0
20260901154542 56 197 2.0 5.0 0.00 0.12 0.00 92 1015.9
20260901153048 56 216 3.0 7.0 0.00 0.12 0.00 93 1015.8
20260901151541 56 223 0.0 1.0 0.00 0.12 0.00 93 1015.6
20260901150037 56 223 0.0 3.0 0.00 0.12 0.00 93 1015.7
20260901144537 57 237 2.0 3.0 0.00 0.12 0.00 93 1015.7
20260901143018 57 222 2.0 4.0 0.00 0.12 0.00 93 1015.7
20260901141517 58 197 4.0 8.0 0.00 0.12 0.00 92 1015.7
20260901140108 58 249 5.0 8.0 0.00 0.12 0.00 93 1015.8
20260901134600 58 222 6.0 9.0 0.00 0.12 0.00 93 1015.8
20260901133100 56 232 2.0 5.0 0.00 0.12 0.00 94 1016.0
20260901131557 55 302 0.0 2.0 0.00 0.12 0.00 93 1015.9
20260901130057 55 326 1.0 2.0 0.00 0.12 0.00 92 1016.0